SOLRAD 11A/B AKM, 8753

Orbit data source: Space-Track

SOLRAD 11A/B AKM, 8753 is space debris originally from a launch on Mon, 15 Mar 1976 UTC launched from the Air Force Eastern Test Range (AFETR). Debris objects in space refer to the collection of defunct objects orbiting the Earth. Examples of debris include non-operational satellites, rocket bodies, and fragments generated from explosions, collisions, or faulty payload assembly.

Loading next visibility...
Identifier
8753, 1976-023H
Orbit
Active
Last TLE update
in 3 days
Origin
Manufacturer
Thiokol/TE
Mission
Spacecraft
Bus & Motor
STAR 13A, Unknown motor
Mass
10 kg wet, 10 kg dry
Launch date (UTC)
1976-03-15 (49 years ago)
Launch vehicle
Unknown
Launch site
Air Force Eastern Test Range (AFETR)
Object type
Payload
Rocket body
Debris
Shape & HBR
Unknown
Radar Cross Section
RCS unknown

Expand to show TLE details & history

TLE from in 3 days
0 SOLRAD 11A/B AKM
1 08753U 76023H   25187.25997272 -.00000868  00000-0  00000-0 0  9990
2 08753  12.9331 338.0954 0316423 100.8073   2.2990  0.18717446  4761
Epoch: 2025-07-06T06:14Z
TLE epoch observation values (Epoch: 2025-07-06T06:14:21.643Z)
Latitude
12.65891°
Longitude
63.5223°
Altitude
118,544.143 km
Speed
1.815 km/s
True Right ascension
05h 26m 23s
True Declination
12° 39' 17"
Sunlit
Object was in daylight at epoch
Visualization orbit readout
Latitude
-12.91111°
Longitude
-123.01796°
Altitude
126,861.986 km
Speed
1.702 km/s
Apparent Right ascension
16h 51m 42s
Apparent Declination
-14° 31' 25"
Sunlit
Object is in daylight
Visualization observer readout
Local Sidereal Time
23:30:04
Azimuth
264.684° W
Elevation
-16.538°
Doppler factor
1
Orbital elements
Apogee altitude
126,800.506 km
Perigee altitude
118,630.855 km
Semi-major axis
129,093.818 km
Eccentricity
0.03164
Inclination
12.9331°
RAAN
338.0954°
Arg. of periapsis
100.8073°
True anomaly
Unknown
Mean anomaly
2.299°
Eccentric anomaly
Unknown
Mean motion
0.04679 °/min
Orbital period
7,693.39 mins
BSTAR
0
Loading maneuver chart data...
Loading SW <> Apogee altitude chart data...
Loading historical data...
Loading historical data...
Loading historical data...
Loading historical data...
Loading historical data...
Loading historical data...
Loading historical data...

SOLRAD 11A/B AKM Visibility forecast

Observer location: undefined°, undefined°

Span
Click to sort rows by Start time (UTC) header in descending order
Start Az.
Max El. time (UTC)
Max El. Az.
Max El.
End time (UTC)
End Az.
482 mins2025-07-04 03:41:32.151Z112.952° SE2025-07-04 09:08:32.151Z183.294° SSW33.912°2025-07-04 11:43:32.151Z223.866° SW
|